Tracking 22459 objects as of 3-Mar-2021
HD Live streaming from Space Station
objects crossing your sky now

BREEZE-M DEB

Track BREEZE-M DEB now!
10-day predictions


NORAD ID: 32040
Int'l Code: 2006-006T
Perigee: 391.6 km
Apogee: 13,923.7 km
Inclination: 51.6 °
Period: 261.0 minutes
Semi major axis: 13528 km
RCS: 0.077 m2 (small)
Launch date: February 28, 2006
Source: Commonwealth of Independent States (former USSR) (CIS)
Launch site: TYURATAM MISSILE AND SPACE COMPLEX (TTMTR)

Note: This is SATELLITE DEBRIS
aabbcc
Your satellite tracking list
Your tracking list is empty




NASA's NSSDC Master Catalog

Two Line Element Set (TLE):
1 32040U 06006T   21061.17909333  .00001706  00000-0  83162-3 0  9993
2 32040  51.6442 258.5043 5001291 233.4227  69.5202  5.51725118276229
Source of the keplerian elements: AFSPC